Location: Mahannah Oil Field
(37.4664°N, 96.6003°W)
Time: 17:01:28
(UTC+00:00)

Vanguard 2 Rocket - Pass Details

Date: 19 June 2021
Orbit: 554 x 3325 km, 32.9° (Epoch: 24 July)

Event Time Altitude Azimuth Distance (km) Brightness Sun altitude
Rises 07:40:38 0° 281° (W) 6,049 11.0 -26.7°
Reaches altitude 10° 07:45:48 10° 273° (W) 4,547 10.3 -26.4°
Enters shadow 07:51:39 24° 251° (WSW) 2,933 9.1 -26.0°
